Total_Precipitation_Accumulation
2.21 2.93 3.57 4.13 4.82 5.59 6.18 6.09 5.48 5.01 4.54 4.14 3.65 3.60 3.43 3.18 2.96 2.71 2.48 2.43 2.31 2.11 2.17 1.99 2.08 1.82 1.88 2.00 2.04 2.31 2.43 2.35 2.35 2.68 2.76 2.29 1.85 1.88 1.86 1.85 2.13 2.16 2.17
2.21 2.96 3.56 3.78 3.82 4.10 4.35 3.85 3.66 3.69 3.41 3.25 3.25 3.18 3.05 2.75 2.53 2.40 2.49 2.17 2.13 2.07 1.92 2.12 1.93 1.86 2.05 2.06 2.11 2.33 2.43 2.34 2.39 2.64 3.00 2.73 2.66 2.28 1.66 1.90 2.04 2.06 2.30
2.33 2.83 3.01 3.02 2.93 2.90 2.88 2.65 2.61 2.93 2.98 3.06 3.13 3.14 3.11 2.94 2.69 2.41 2.42 2.08 1.88 1.90 1.99 1.96 2.02 2.10 1.81 2.04 2.19 2.20 2.38 2.47 2.38 2.38 2.77 2.80 2.80 2.44 1.86 1.75 1.84 2.03 2.34
2.32 2.30 1.88 1.75 1.90 2.00 2.12 2.38 2.48 2.62 2.58 2.75 2.73 2.66 2.44 2.29 2.18 2.11 2.18 2.19 1.97 1.86 1.81 1.88 2.16 2.26 1.97 2.18 1.77 1.89 2.20 2.40 2.33 2.39 2.25 2.21 2.37 2.55 2.42 2.07 1.86 1.95 2.09
1.38 1.23 1.09 1.13 1.36 1.64 1.92 2.29 2.40 2.44 2.37 2.36 2.49 2.68 2.58 2.55 2.39 2.28 2.48 2.46 2.43 2.17 1.85 1.86 2.11 2.30 2.24 2.27 2.08 2.28 2.08 1.99 2.00 2.10 2.17 2.19 2.12 1.97 2.24 2.35 2.20 2.03 1.78
0.75 0.79 0.90 1.10 1.34 1.51 1.68 1.94 2.08 2.27 2.30 2.35 2.45 2.49 2.53 2.65 2.57 2.47 2.37 2.25 2.28 2.21 2.06 2.02 2.27 2.27 2.23 2.33 2.25 2.24 2.09 2.06 2.06 1.98 1.94 2.23 2.23 2.09 2.23 2.09 2.06 1.99 1.59
0.64 0.79 0.90 1.11 1.21 1.30 1.35 1.53 1.59 1.80 1.99 2.11 2.19 2.28 2.42 2.53 2.47 2.49 2.40 2.28 2.10 2.01 2.10 2.17 2.37 2.27 2.21 2.16 2.25 2.24 2.22 2.24 2.26 2.14 1.96 1.98 2.06 2.12 2.14 2.13 1.86 1.73 1.54
0.55 0.61 0.74 0.86 0.94 1.07 1.25 1.43 1.42 1.45 1.53 1.59 1.77 1.95 2.02 2.15 2.20 2.45 2.35 2.25 2.12 2.04 2.14 2.22 2.11 2.06 2.08 1.95 2.21 2.11 2.07 2.16 2.19 2.09 2.38 2.26 1.94 2.06 2.09 2.20 2.37 2.18 1.97
0.63 0.60 0.62 0.81 0.88 0.84 0.95 1.14 1.20 1.24 1.29 1.35 1.49 1.56 1.60 1.76 1.99 2.05 1.90 1.76 1.84 1.95 2.05 2.04 2.07 2.06 2.05 2.11 2.30 2.20 2.19 2.33 2.16 2.16 2.53 2.36 2.04 2.00 2.03 2.16 2.44 2.72 2.43
0.54 0.65 0.67 0.75 0.80 0.78 0.95 1.09 1.18 1.24 1.26 1.27 1.31 1.25 1.40 1.52 1.70 1.78 1.78 1.70 1.64 1.78 1.94 2.02 2.10 2.12 2.04 2.08 2.25 2.13 2.24 2.33 2.29 2.31 2.41 2.36 2.15 2.15 2.15 2.25 2.45 2.71 2.67
0.50 0.62 0.65 0.72 0.70 0.69 0.80 0.97 1.16 1.21 1.13 1.17 1.21 1.29 1.38 1.55 1.63 1.60 1.66 1.68 1.70 1.81 1.88 1.96 2.04 2.05 2.06 2.17 2.26 2.14 2.29 2.32 2.41 2.36 2.32 2.29 2.49 2.50 2.29 2.37 2.41 2.61 2.82
0.55 0.59 0.63 0.68 0.63 0.63 0.71 0.83 1.02 1.16 1.19 1.18 1.25 1.35 1.42 1.51 1.58 1.52 1.62 1.80 1.84 1.89 1.92 1.99 2.09 2.03 2.11 2.25 2.20 2.17 2.26 2.33 2.32 2.43 2.61 2.55 2.65 2.60 2.48 2.58 2.56 2.64 2.89
0.58 0.61 0.71 0.67 0.61 0.62 0.67 0.81 1.08 1.29 1.45 1.50 1.46 1.43 1.39 1.45 1.56 1.63 1.69 1.81 1.94 2.01 1.99 1.94 1.99 2.13 2.31 2.33 2.17 2.15 2.17 2.12 2.06 2.23 2.49 2.75 3.13 2.96 2.74 2.58 2.50 2.54 2.63
0.55 0.66 0.75 0.81 0.86 0.86 0.87 1.01 1.19 1.25 1.37 1.35 1.33 1.40 1.44 1.56 1.71 1.77 1.84 1.91 1.94 2.00 2.09 2.10 2.09 2.13 2.16 2.14 2.13 2.18 2.21 2.18 2.03 2.04 2.14 2.30 2.60 2.78 2.89 2.63 2.45 2.52 2.64
0.67 0.73 0.81 0.88 0.95 1.03 1.02 1.01 1.10 1.12 1.25 1.54 1.66 1.78 1.79 1.84 1.96 2.05 2.02 2.06 2.06 2.05 2.24 2.26 2.22 2.17 2.10 1.96 2.13 2.25 2.15 2.20 2.12 2.07 2.03 1.90 2.03 2.21 2.39 2.28 2.54 2.67 2.62
0.78 0.86 0.91 0.95 0.98 1.05 1.15 1.20 1.21 1.24 1.44 1.85 2.11 2.22 2.26 2.31 2.36 2.42 2.42 2.44 2.39 2.50 2.55 2.41 2.34 2.28 2.04 2.16 2.17 2.19 2.20 2.28 2.24 2.16 2.12 1.96 1.84 1.84 1.96 2.02 2.20 2.42 2.45
0.73 0.82 0.98 1.09 1.10 1.13 1.22 1.32 1.40 1.45 1.60 1.88 2.08 2.18 2.29 2.40 2.56 2.60 2.63 2.63 2.65 2.66 2.65 2.69 2.63 2.51 2.53 2.48 2.14 2.07 2.08 2.16 2.19 2.29 2.34 1.97 1.66 1.84 1.79 1.89 1.92 1.88 1.99
0.79 0.91 0.96 1.11 1.22 1.31 1.43 1.66 1.85 1.98 2.01 2.12 2.30 2.40 2.38 2.40 2.48 2.50 2.45 2.48 2.61 2.63 2.59 2.51 2.42 2.39 2.33 2.30 2.03 1.91 1.82 1.91 1.96 1.97 2.00 1.99 1.82 1.72 1.76 1.77 1.67 1.57 1.59
0.94 1.12 1.27 1.31 1.42 1.52 1.64 1.80 2.08 2.23 2.27 2.25 2.41 2.54 2.63 2.69 2.60 2.49 2.52 2.56 2.61 2.49 2.42 2.35 2.33 2.28 2.27 2.27 2.04 1.93 1.74 1.72 1.71 1.71 1.73 1.77 1.68 1.72 1.69 1.59 1.54 1.49 1.43
1.02 1.12 1.32 1.47 1.54 1.70 1.78 1.85 1.98 2.11 2.22 2.23 2.31 2.47 2.56 2.72 2.83 2.76 2.77 2.73 2.65 2.55 2.50 2.44 2.46 2.44 2.42 2.50 2.21 2.04 1.88 1.87 1.85 1.91 1.88 1.85 1.73 1.71 1.62 1.49 1.47 1.35 1.26
1.01 1.06 1.14 1.31 1.42 1.52 1.62 1.78 1.89 1.91 2.02 2.07 2.06 2.22 2.44 2.61 2.74 2.86 2.88 2.88 2.80 2.69 2.51 2.36 2.31 2.31 2.38 2.51 2.31 2.14 1.94 1.95 2.06 2.12 2.15 2.09 1.98 1.67 1.52 1.40 1.32 1.29 1.40
1.06 1.09 1.17 1.26 1.34 1.48 1.72 1.92 1.98 1.96 1.97 2.03 2.14 2.26 2.45 2.55 2.56 2.64 2.72 2.84 2.83 2.76 2.67 2.43 2.25 2.18 2.10 2.05 2.06 1.91 1.80 1.84 1.96 2.06 2.17 2.18 2.08 1.82 1.65 1.50 1.38 1.38 1.35
1.19 1.16 1.20 1.33 1.52 1.70 1.91 2.13 2.17 2.20 2.21 2.25 2.33 2.40 2.48 2.55 2.59 2.59 2.59 2.61 2.59 2.49 2.42 2.29 2.20 2.17 2.11 2.02 1.86 1.64 1.57 1.59 1.63 1.77 2.10 2.20 2.07 1.87 1.61 1.51 1.46 1.36 1.25
1.26 1.23 1.22 1.32 1.51 1.63 1.73 1.95 2.09 2.14 2.29 2.30 2.23 2.21 2.22 2.27 2.32 2.38 2.38 2.38 2.34 2.29 2.22 2.16 2.11 2.02 1.96 1.85 1.75 1.66 1.53 1.48 1.47 1.48 1.70 1.80 1.77 1.61 1.48 1.39 1.28 1.17 1.15
1.33 1.33 1.36 1.41 1.46 1.50 1.56 1.67 1.81 1.95 2.15 2.26 2.25 2.26 2.27 2.28 2.31 2.37 2.42 2.28 2.20 2.23 2.11 1.99 2.03 2.00 1.85 1.80 1.76 1.65 1.54 1.47 1.51 1.49 1.51 1.60 1.70 1.68 1.61 1.57 1.47 1.36 1.27
1.41 1.45 1.50 1.53 1.50 1.48 1.58 1.70 1.83 2.04 2.28 2.29 2.19 2.20 2.27 2.34 2.38 2.42 2.49 2.52 2.29 2.24 2.11 2.01 1.96 1.88 1.76 1.65 1.50 1.44 1.39 1.32 1.30 1.22 1.28 1.47 1.65 1.77 1.77 1.80 1.75 1.63 1.50